7 * 24
多渠道服务支持
RAWHIDE-1(NORAD编号68629)是一颗低轨人造卫星,公开可查信息有限,结合 NORAD 轨道编号与命名规律推测,大概率属于美国军方或情报机构主导的保密实验性卫星项目。这类以“Rawhide”命名的卫星通常服务于电子侦察、技术验证等涉密任务,运行在近地轨道,主要承担空间电子信号监测、新兴航天技术在轨测试等隐秘任务,其具体任务参数、运营方与技术细节均未公开解密,体现了航天领域保密军事项目的典型特征。
美国
(US)
| 数据来源 | 国际轨道数据 |
| 星历时间: | 2026-09-11T22:14:08+0800 7小时前 查看轨道信息 |
| 半长轴: | 6869.053km |
| 偏心率: | 0.0038664 |
| 轨道倾角: | 60.021° |
| 近地点辐角 | 84.020° |
| 升交点赤经 | 206.455° |
| 平近点角 | 276.529° |
| 近地点: | 464.357km |
| 远地点: | 517.475km |
| 周期: | 94.429分钟 |
| 每日圈数: | 15.249568 |